THOR ABLESTAR DEB, 48820

Orbit data source: Space-Track

THOR ABLESTAR DEB, 48820 is space debris in LEO originally from a launch on Thu, 29 Jun 1961 UTC launched from the Air Force Eastern Test Range (AFETR). Debris objects in space refer to the collection of defunct objects orbiting the Earth. Examples of debris include non-operational satellites, rocket bodies, and fragments generated from explosions, collisions, or faulty payload assembly.

Loading next visibility...
Identifier
48820, 1961-015MY
Orbit
LEO
Country
Flag of USUS
Related business
Manufacturer
Unknown
Mission
Spacecraft
Bus & Motor
Unknown
Mass
Unknown
Launch date (UTC)
1961-06-29 (65 years ago)
Launch vehicle
Unknown
Launch site
Air Force Eastern Test Range (AFETR)
Object type
Payload
Rocket body
Debris
Shape & HBR
Unknown shape, 0.1 m
Radar Cross Section
Small (<0.1 m²)

Expand to show TLE details & history
Last TLE update: 3 days ago

TLE from 3 days ago
0 THOR ABLESTAR DEB
1 48820U 61015MY  26164.12826361  .00000460  00000-0  58305-3 0  9997
2 48820  65.8497 312.1460 0131022 166.7021 193.7548 13.69473154628008
Epoch: 2026-06-13T03:04Z
TLE epoch observation values (Epoch: 2026-06-13T03:04:41.975Z)
Latitude
-0.00005°
Longitude
4.52328°
Altitude
1,097.442 km
Speed
7.257 km/s
True Right ascension
20h 48m 35s
True Declination
0° 00' 00"
Sunlit
Object was in full shadow at epoch
Visualization orbit readout
Latitude
Unknown
Longitude
Unknown
Altitude
Unknown
Speed
Unknown
Apparent Right ascension
Unknown
Apparent Declination
Unknown
Sunlit
N/A
Visualization observer readout
Local Sidereal Time
12:36:07
Azimuth
Unknown
Elevation
Unknown
Doppler factor
Unknown
Orbital elements
Apogee altitude
1,096.651 km
Perigee altitude
903.312 km
Semi-major axis
7,378.119 km
Eccentricity
0.0131
Inclination
65.8497°
RAAN
312.146°
Arg. of periapsis
166.7021°
True anomaly
193.40341°
Mean anomaly
193.7548°
Eccentric anomaly
193.57855°
Mean motion
3.42472 °/min
Orbital period
105.12 mins
BSTAR
0.00058305
Loading maneuver chart data...
Computing Atmospheric mass density...

Documentation

Showing up to 5 results
|